RH
27 28 39 32 16 11 6 5 5 5 5 4 4 3 3 3 3 3 3 2 2 2 2 2 3 3 3 3 3 3 4 3 3 3 4 4 5 5 5 6 7 8 9
25 30 33 27 18 10 6 5 5 5 5 4 4 3 3 3 3 3 3 3 3 3 2 2 2 2 3 3 3 3 3 3 3 3 4 4 5 5 5 5 5 6 6
20 24 31 31 20 11 7 5 6 6 5 5 5 4 3 3 3 3 3 3 3 3 3 3 3 3 3 3 3 3 3 3 3 3 3 4 4 4 4 4 5 5 5
16 19 25 29 16 11 8 5 6 6 6 6 5 5 5 4 4 4 4 4 4 4 4 4 4 4 3 3 3 3 3 3 3 4 4 4 4 5 4 4 4 4 4
22 15 22 24 14 10 10 6 6 7 6 6 6 5 5 5 5 4 4 4 4 4 4 4 4 4 4 4 4 4 4 4 3 3 3 4 4 4 4 4 3 3 4
20 12 17 19 14 10 10 6 7 8 7 6 6 6 5 4 4 4 4 4 4 4 4 5 5 4 4 4 4 4 4 4 4 3 3 3 3 3 3 3 3 3 3
21 11 13 15 14 9 11 7 7 8 9 8 7 6 5 4 4 4 4 4 4 4 4 5 5 5 5 4 4 5 5 5 4 4 4 3 3 3 3 3 3 3 3
24 10 10 13 12 9 11 9 7 8 10 9 8 6 5 4 3 4 4 4 4 5 5 5 5 5 5 5 5 5 5 5 5 5 5 5 5 5 5 5 4 4 4
31 10 10 11 10 9 10 10 7 9 10 10 8 6 4 4 4 4 4 4 5 5 5 6 6 6 5 5 5 5 5 5 5 6 6 6 6 6 6 6 6 6 5
35 17 10 10 10 10 11 10 8 10 11 9 8 5 4 4 4 4 5 5 5 6 6 6 6 6 5 5 5 6 6 6 6 6 6 7 7 7 7 7 7 7 7
34 28 10 9 9 10 11 9 9 11 11 9 7 5 4 4 5 5 5 6 6 6 6 7 7 6 6 5 6 6 6 6 6 6 7 7 7 7 7 7 8 8 8
25 32 11 9 9 10 11 10 10 11 10 9 7 6 5 6 6 6 6 6 7 7 7 7 7 6 6 6 6 6 7 6 7 7 7 7 7 7 8 8 8 8 8
27 36 19 9 9 10 12 11 11 11 10 9 7 6 7 6 6 7 7 7 7 7 8 8 7 7 6 6 7 7 7 7 8 8 7 8 8 8 8 7 7 7 7
32 38 26 10 9 10 12 12 12 12 11 10 8 8 7 7 7 7 7 7 8 8 8 8 8 7 6 7 8 8 8 8 8 8 8 8 8 9 11 12 12 11 10
39 39 33 12 11 10 11 12 12 12 11 10 10 9 9 8 8 7 8 8 8 8 9 9 8 7 7 8 8 8 8 8 8 8 9 13 15 15 15 15 14 14 14
46 39 38 15 13 11 12 13 13 12 12 11 10 10 9 9 8 8 8 9 9 9 9 10 9 8 8 8 9 9 9 8 8 12 16 16 16 16 16 16 17 17 17
52 46 46 20 15 14 12 13 13 13 12 12 12 12 10 9 9 9 9 9 10 10 10 10 10 9 8 9 9 9 9 9 16 18 17 17 16 16 16 17 17 17 18
60 50 54 27 20 17 15 14 14 14 12 12 12 12 12 10 10 10 10 11 11 11 11 12 11 9 9 10 10 10 10 17 19 18 17 17 17 18 18 17 18 18 18
73 67 62 41 25 20 18 15 15 15 13 13 12 13 12 12 12 12 13 13 12 12 12 13 11 10 10 11 11 11 19 20 19 18 17 17 18 18 17 18 17 18 19
78 75 74 62 35 27 23 18 16 16 16 15 14 14 14 14 14 15 17 15 13 12 14 14 12 11 11 12 12 20 21 20 19 18 18 20 20 20 20 18 17 18 20
71 77 76 75 51 35 28 20 18 19 19 19 16 17 17 16 16 18 19 16 14 14 16 14 12 12 12 13 20 22 22 21 20 21 22 20 21 18 18 18 20 20 20
54 64 73 79 74 46 37 28 24 23 24 22 19 19 19 20 19 23 19 17 15 18 17 13 12 14 14 20 23 23 23 21 22 21 21 21 21 20 21 22 21 20 20
39 49 59 73 83 70 51 39 29 27 27 26 23 22 23 23 26 25 21 18 20 19 15 13 14 15 21 24 24 25 25 24 21 23 22 22 20 19 20 19 22 20 19
25 43 38 62 77 85 73 57 37 33 32 32 28 26 28 27 30 25 22 22 20 16 14 15 15 22 25 26 24 26 27 27 26 24 24 24 23 22 25 27 25 22 20
39 37 34 44 75 88 90 66 45 48 51 43 32 32 33 34 30 28 27 24 19 16 16 16 23 26 25 26 26 26 26 25 24 24 24 28 28 32 28 28 24 24 25
41 49 51 49 69 98 97 76 60 57 59 49 40 40 41 36 33 32 29 22 18 15 17 24 28 26 26 27 26 24 23 21 21 21 18 17 14 17 19 23 26 29 30
Wind_Speed
12 13 12 10 8 7 7 8 8 8 8 8 8 8 8 8 8 8 7 7 7 7 7 7 7 8 9 9 10 9 6 4 3 2 1 0 1 2 1 2 3 4 4
13 11 12 11 10 9 9 9 9 8 8 8 8 8 8 8 8 8 8 8 7 8 8 8 8 8 9 9 8 8 7 6 6 5 4 2 2 2 3 3 3 4 5
12 14 12 12 11 10 10 10 10 9 8 8 8 8 8 7 7 7 7 7 7 7 8 8 7 7 7 7 7 6 6 7 7 6 5 4 5 5 5 5 5 5 6
11 14 14 13 12 11 10 11 10 9 9 8 7 7 7 7 7 6 6 6 7 7 7 7 7 7 6 6 6 6 5 6 5 5 4 5 5 5 5 6 6 7 7
10 13 16 14 13 12 12 11 10 9 9 7 7 6 5 6 6 5 5 5 6 6 7 7 7 7 7 6 6 6 6 6 5 4 4 4 5 5 6 7 8 8 9
10 13 17 16 14 14 13 12 11 9 9 8 7 6 5 4 4 4 3 4 4 5 6 6 7 8 7 7 7 6 7 7 6 5 5 5 6 6 6 8 8 10 10
11 14 17 16 15 15 14 13 12 10 9 8 7 6 6 5 4 3 3 2 3 3 5 6 7 8 8 8 7 6 7 7 6 6 5 6 6 7 8 9 9 11 12
12 14 17 17 17 16 15 14 14 12 10 8 7 7 7 6 5 4 3 2 1 3 4 5 7 8 8 8 7 6 6 5 5 5 5 5 6 7 9 10 10 11 12
15 16 18 18 18 17 16 15 15 13 11 9 8 8 9 8 7 5 4 2 1 2 3 6 7 8 9 8 7 6 6 5 5 5 6 7 8 8 10 11 12 12 13
19 17 19 20 19 17 16 17 16 14 12 10 9 9 9 9 7 6 5 3 0 2 4 6 8 9 9 9 8 7 6 5 5 5 6 7 9 10 11 12 12 13 13
20 20 21 22 20 19 18 18 17 15 13 11 10 10 9 8 8 7 5 3 1 3 4 7 8 9 9 9 8 7 5 5 6 7 8 9 11 11 12 13 13 14 14
21 21 22 22 21 20 19 19 17 16 14 12 11 10 9 8 7 6 4 3 2 3 5 6 8 10 10 9 8 7 6 7 7 8 10 12 13 13 13 14 14 15 16
23 23 22 22 22 21 20 19 18 16 15 13 13 11 9 8 7 6 4 4 3 4 6 8 9 10 10 10 9 7 7 8 9 11 12 14 14 14 15 15 15 15 16
25 25 24 24 24 23 21 20 19 17 16 15 14 11 10 8 8 7 6 5 5 6 7 8 9 10 10 10 9 8 8 10 12 14 14 15 15 15 15 16 17 16 17
26 26 25 25 25 24 22 21 20 18 17 16 15 12 10 10 9 7 6 6 6 7 8 9 10 11 11 10 10 10 11 13 14 15 15 15 15 16 16 17 17 18 18
26 27 27 27 27 25 23 21 20 18 17 16 16 15 11 10 9 8 8 7 7 8 9 10 11 12 12 11 11 12 14 15 15 15 16 17 17 18 18 18 18 19 20
29 31 29 28 29 27 24 23 21 19 17 17 16 14 13 11 10 9 8 9 9 9 10 11 12 13 12 12 13 15 16 16 16 16 17 18 18 18 19 19 20 20 21
27 33 30 30 30 28 26 23 21 20 18 17 16 15 11 11 11 10 10 10 10 11 11 12 13 13 13 13 15 16 17 17 17 18 18 18 18 18 19 20 21 22 22
29 28 29 31 31 29 27 25 23 20 19 17 16 16 12 11 11 11 11 11 12 12 13 14 14 14 14 15 17 17 17 18 19 19 19 19 19 20 20 21 22 23 23
26 29 28 31 31 30 28 27 25 23 20 18 17 17 13 12 12 12 12 12 13 13 14 15 15 14 15 16 17 18 18 19 20 20 20 21 20 21 22 23 24 25 26
32 28 30 30 33 33 31 29 26 21 19 18 18 16 16 12 13 13 13 13 13 15 15 15 15 15 17 17 18 19 19 20 21 20 20 21 22 23 24 25 26 27 28
36 35 30 30 32 34 32 28 24 22 21 20 20 18 18 14 14 14 14 14 14 16 18 16 15 16 17 18 18 20 21 21 21 21 20 22 23 25 26 28 29 29 29
40 38 33 31 30 33 31 28 28 28 25 21 19 18 17 17 14 13 14 15 15 18 18 17 16 17 18 18 20 21 21 22 23 22 23 24 27 29 29 31 32 33 34
42 39 36 30 33 31 33 32 31 23 18 19 20 20 17 17 15 14 15 15 17 17 16 17 18 19 19 20 21 22 22 22 23 25 25 28 29 31 32 33 34 35 36
35 36 35 31 33 34 35 37 30 25 24 24 21 18 16 15 15 15 17 18 17 15 16 18 19 20 21 21 22 22 23 24 25 27 27 28 29 30 33 34 36 38 39
34 32 29 30 36 33 38 37 30 27 24 22 19 15 14 14 15 16 17 17 16 19 19 20 20 22 23 23 23 23 24 26 27 29 32 33 35 31 32 33 35 37 40
Wind_Direction
200 195 191 197 183 179 171 157 145 140 134 126 123 119 114 107 101 96 89 83 73 65 56 50 44 42 44 49 52 60 74 89 99 101 103 8 328 326 318 317 313 307 299
206 203 197 199 189 184 176 167 155 147 139 130 124 115 108 102 97 93 89 82 74 66 57 48 42 38 38 40 44 44 45 49 50 55 61 51 32 343 344 348 311 303 297
221 208 204 204 198 190 184 177 165 154 145 136 128 118 110 104 100 96 93 89 81 71 62 55 46 38 34 33 33 30 27 30 32 30 28 17 4 342 348 337 326 312 305
225 215 208 204 203 195 192 186 176 163 154 146 136 127 120 112 107 106 99 87 80 70 59 49 42 34 26 24 22 19 11 23 22 10 20 352 341 334 338 323 311 303 301
239 218 208 209 203 199 197 193 186 174 165 162 156 148 134 118 110 107 102 91 78 67 56 43 33 24 16 12 11 9 2 17 3 345 351 329 322 329 321 310 302 297 292
237 223 210 212 208 201 200 198 193 186 177 174 176 172 164 144 122 111 105 94 78 61 48 33 28 19 11 8 11 3 2 10 356 346 342 326 330 327 314 307 305 299 297
237 225 215 211 211 205 202 201 198 195 191 185 187 189 185 173 152 136 120 101 75 54 40 27 18 15 11 8 14 8 7 11 4 355 348 349 342 332 320 318 311 307 306
233 223 218 212 213 208 204 205 201 199 199 197 195 193 191 181 180 168 150 129 75 37 25 16 11 8 7 4 6 5 10 0 355 350 354 348 339 330 322 318 318 312 311
234 224 217 214 212 209 206 205 204 203 199 200 198 196 188 184 183 176 170 159 111 9 3 359 2 0 359 355 357 2 1 352 348 342 341 338 336 329 325 321 320 317 316
228 224 217 215 212 207 206 203 202 204 200 197 195 195 190 184 181 179 176 174 208 331 343 347 351 353 353 347 351 354 357 335 333 332 329 328 327 326 324 318 319 314 313
225 223 219 215 212 208 204 202 202 203 203 193 190 193 190 186 184 186 186 185 239 304 327 338 343 344 343 343 342 348 337 325 325 328 327 325 322 320 317 316 315 313 312
228 227 221 217 211 209 207 203 202 202 202 195 186 190 191 191 192 198 202 212 246 294 318 328 336 338 339 335 336 339 329 324 325 324 320 316 314 314 314 314 313 310 308
228 223 224 217 215 210 209 205 204 203 200 200 187 188 193 200 204 214 225 243 268 294 313 326 330 331 330 329 327 328 323 319 316 315 314 312 311 312 312 311 309 306 306
224 221 218 213 213 213 210 206 204 206 202 202 195 187 200 206 214 220 232 252 277 298 309 314 321 324 322 320 318 316 317 315 315 313 311 311 310 311 311 309 307 307 307
222 219 219 213 212 211 212 210 209 207 205 208 206 182 201 217 225 233 243 257 271 288 300 309 314 315 314 314 312 312 312 310 309 308 310 309 309 308 308 308 307 306 308
227 217 217 212 210 210 213 209 211 211 210 213 220 178 205 221 231 241 252 264 277 287 297 304 308 310 311 308 306 306 308 308 308 309 310 310 310 310 309 308 308 307 306
227 222 216 211 209 210 210 212 212 212 216 216 221 213 190 221 231 242 254 266 276 287 295 301 305 306 304 301 301 304 306 306 307 309 309 308 308 308 308 307 305 306 306
226 225 214 211 209 210 208 212 213 213 216 219 225 227 206 220 234 245 255 265 275 283 290 295 299 299 297 296 299 303 304 306 308 308 307 307 306 306 305 304 304 304 303
227 228 222 214 210 210 209 209 212 213 217 219 225 229 222 229 241 251 260 271 277 283 287 292 295 294 291 295 300 302 303 306 307 308 307 306 306 306 305 304 301 300 299
226 228 228 220 215 212 210 210 211 211 215 219 228 233 224 232 244 256 266 271 275 280 286 291 290 288 290 296 300 301 303 305 305 307 309 308 308 307 304 302 301 302 302
228 227 224 224 218 215 213 212 213 213 217 220 226 232 240 230 248 257 265 269 276 281 284 285 284 287 293 297 298 299 303 304 304 306 307 306 307 304 303 304 303 303 304
232 231 224 223 223 218 215 213 210 215 214 217 224 230 243 238 246 260 266 273 281 286 287 283 282 290 294 297 298 300 302 301 301 303 304 305 304 304 305 304 302 303 304
228 229 229 224 225 222 216 213 210 216 215 218 226 236 239 252 251 261 270 277 286 287 284 284 288 294 294 295 297 299 301 300 301 304 305 305 306 306 306 306 307 307 306
229 228 229 226 226 227 212 213 219 218 225 227 227 232 239 252 259 262 270 279 282 278 282 286 294 292 293 296 298 298 298 298 301 304 306 306 307 309 309 307 306 306 306
223 228 231 225 227 228 217 213 212 210 214 223 228 236 246 255 265 273 278 283 280 280 287 291 289 292 295 296 296 295 296 298 301 302 303 303 303 303 305 305 306 307 307
222 227 229 230 221 229 220 212 207 209 215 223 230 235 243 257 266 277 285 287 290 293 288 287 290 293 295 295 294 297 299 301 303 303 304 302 302 300 300 301 303 302 301